Weather History for Southern Pines, NC

Change the Weather History Date:

Wednesday, January 9, 2013

  Actual Average Record
Temperature  
Mean Temperature 52 °F -  
Max Temperature 71 °F 51 °F 71 °F (2013)
Min Temperature 33 °F 31 °F 17 °F (1981)
Degree Days  
Heating Degree Days 13    
Growing Degree Days 2 (Base 50)    
Moisture  
Dew Point 41 °F    
Average Humidity 70    
Maximum Humidity 93    
Minimum Humidity 43    
Precipitation  
Precipitation 0.00 in - - ()
Sea Level Pressure  
Sea Level Pressure 30.40 in    
Wind  
Wind Speed 1 mph (WSW)    
Max Wind Speed 7 mph    
Max Gust Speed -    
Visibility 10 miles    
Events      
Averages and records for this station are not official NWS values.
T = Trace of Precipitation, MM = Missing Value Source: NWS Daily Summary

Daily Weather History Graph

Daily Weather History Graph

Search for Another Location

Airport:

Trip Planner

Search our weather history database for the weather conditions in past years. The results will help you decide how hot, cold, wet, or windy it might be!

Date:

Astronomy

Jan. 09, 2013 Rise Set
Actual Time 7:26 AM EST 5:23 PM EST
Civil Twilight 6:58 AM EST 5:51 PM EST
Nautical Twilight 6:27 AM EST 6:22 PM EST
Astronomical Twilight 5:56 AM EST 6:53 PM EST
Moon 5:03 AM EST (1/9) 3:23 PM EST (1/9)
Length of Visible Light 10h 52m
Length of Day
9h 56m
Waning Crescent, 6% of the Moon is Illuminated
Jan 9
Waning Crescent
Jan 11
New
Jan 18
First Quarter
Jan 26
Full
Feb 3
Last Quarter

Hourly Weather History & Observations

Time (EST) Temp. Dew Point Humidity Pressure Visibility Wind Dir Wind Speed Gust Speed Precip Events Conditions
12:15 AM 46.4 °F 37.4 °F 71% 30.39 in 10.0 mi Calm Calm - N/A   Overcast
12:35 AM 44.6 °F 39.2 °F 81% 30.38 in 10.0 mi Calm Calm - N/A   Scattered Clouds
12:55 AM 42.8 °F 35.6 °F 76% 30.37 in 10.0 mi Calm Calm - N/A   Clear
1:15 AM 44.6 °F 37.4 °F 76% 30.37 in 10.0 mi Calm Calm - N/A   Clear
1:35 AM 42.8 °F 37.4 °F 81% 30.36 in 10.0 mi Calm Calm - N/A   Clear
1:55 AM 42.8 °F 37.4 °F 81% 30.36 in 10.0 mi Calm Calm - N/A   Clear
2:15 AM 42.8 °F 35.6 °F 76% 30.37 in 10.0 mi Calm Calm - N/A   Clear
2:35 AM 39.2 °F 35.6 °F 87% 30.38 in 10.0 mi Calm Calm - N/A   Clear
2:55 AM 39.2 °F 35.6 °F 87% 30.39 in 10.0 mi Calm Calm - N/A   Clear
3:15 AM 39.2 °F 33.8 °F 81% 30.39 in 10.0 mi Calm Calm - N/A   Clear
3:35 AM 39.2 °F 35.6 °F 87% 30.39 in 10.0 mi Calm Calm - N/A   Clear
3:55 AM 39.2 °F 35.6 °F 87% 30.39 in 10.0 mi Calm Calm - N/A   Clear
4:15 AM 39.2 °F 35.6 °F 87% 30.39 in 10.0 mi Calm Calm - N/A   Clear
4:35 AM 37.4 °F 33.8 °F 87% 30.38 in 10.0 mi Calm Calm - N/A   Clear
4:55 AM 37.4 °F 33.8 °F 87% 30.38 in 10.0 mi Calm Calm - N/A   Clear
5:15 AM 37.4 °F 33.8 °F 87% 30.38 in 10.0 mi Calm Calm - N/A   Clear
5:35 AM 37.4 °F 30.2 °F 75% 30.39 in 7.0 mi Calm Calm - N/A   Clear
5:55 AM 37.4 °F 33.8 °F 87% 30.38 in 10.0 mi Calm Calm - N/A   Clear
6:15 AM 37.4 °F 33.8 °F 87% 30.39 in 9.0 mi Calm Calm - N/A   Clear
6:35 AM 37.4 °F 33.8 °F 87% 30.39 in 10.0 mi Calm Calm - N/A   Clear
6:55 AM 35.6 °F 33.8 °F 93% 30.40 in 7.0 mi Calm Calm - N/A   Clear
7:15 AM 35.6 °F 32.0 °F 87% 30.40 in 7.0 mi Calm Calm - N/A   Clear
7:35 AM 33.8 °F 30.2 °F 87% 30.41 in 3.0 mi Calm Calm - N/A   Clear
7:55 AM 35.6 °F 32.0 °F 87% 30.41 in 4.0 mi Calm Calm - N/A   Clear
8:15 AM 35.6 °F 32.0 °F 87% 30.42 in 5.0 mi Calm Calm - N/A   Clear
8:35 AM 37.4 °F 35.6 °F 93% 30.42 in 5.0 mi Calm Calm - N/A   Clear
8:55 AM 42.8 °F 39.2 °F 87% 30.43 in 10.0 mi Calm Calm - N/A   Clear
9:15 AM 46.4 °F 39.2 °F 76% 30.43 in 10.0 mi Calm Calm - N/A   Clear
9:35 AM 48.2 °F 39.2 °F 71% 30.43 in 10.0 mi Calm Calm - N/A   Clear
9:55 AM 51.8 °F 39.2 °F 62% 30.44 in 10.0 mi Calm Calm - N/A   Clear
10:15 AM 53.6 °F 41.0 °F 62% 30.45 in 10.0 mi Calm Calm - N/A   Clear
10:35 AM 53.6 °F 42.8 °F 67% 30.44 in 10.0 mi Calm Calm - N/A   Clear
10:55 AM 57.2 °F 44.6 °F 63% 30.44 in 10.0 mi North 3.5 mph - N/A   Clear
11:15 AM 60.8 °F 44.6 °F 55% 30.44 in 10.0 mi NW 4.6 mph - N/A   Clear
11:35 AM 60.8 °F 44.6 °F 55% 30.43 in 10.0 mi North 4.6 mph - N/A   Clear
11:55 AM 60.8 °F 46.4 °F 59% 30.42 in 10.0 mi North 3.5 mph - N/A   Clear
12:15 PM 62.6 °F 46.4 °F 55% 30.42 in 10.0 mi NNW 4.6 mph - N/A   Mostly Cloudy
12:35 PM 64.4 °F 46.4 °F 52% 30.40 in 10.0 mi Calm Calm - N/A   Scattered Clouds
12:55 PM 66.2 °F 46.4 °F 49% 30.40 in 10.0 mi Calm Calm - N/A   Clear
1:15 PM 66.2 °F 46.4 °F 49% 30.38 in 10.0 mi Calm Calm - N/A   Clear
1:35 PM 68.0 °F 46.4 °F 46% 30.37 in 10.0 mi SSW 3.5 mph - N/A   Clear
1:55 PM 69.8 °F 46.4 °F 43% 30.37 in 10.0 mi WSW 4.6 mph - N/A   Clear
2:15 PM 69.8 °F 46.4 °F 43% 30.37 in 10.0 mi SW 5.8 mph - N/A   Clear
2:35 PM 71.6 °F 48.2 °F 43% 30.37 in 10.0 mi WSW 4.6 mph - N/A   Clear
2:55 PM 71.6 °F 48.2 °F 43% 30.37 in 10.0 mi WSW 6.9 mph - N/A   Clear
3:15 PM 69.8 °F 46.4 °F 43% 30.38 in 10.0 mi WSW 6.9 mph - N/A   Clear
3:35 PM 69.8 °F 46.4 °F 43% 30.38 in 10.0 mi Calm Calm - N/A   Clear
3:55 PM 69.8 °F 46.4 °F 43% 30.37 in 10.0 mi WSW 4.6 mph - N/A   Clear
4:15 PM 68.0 °F 46.4 °F 46% 30.37 in 10.0 mi WSW 4.6 mph - N/A   Clear
4:35 PM 66.2 °F 46.4 °F 49% 30.37 in 10.0 mi SSW 4.6 mph - N/A   Scattered Clouds
4:55 PM 64.4 °F 46.4 °F 52% 30.37 in 10.0 mi Calm Calm - N/A   Scattered Clouds
5:15 PM 64.4 °F 46.4 °F 52% 30.38 in 10.0 mi Calm Calm - N/A   Partly Cloudy
5:35 PM 62.6 °F 46.4 °F 55% 30.38 in 10.0 mi Calm Calm - N/A   Clear
5:55 PM 60.8 °F 46.4 °F 59% 30.39 in 10.0 mi Calm Calm - N/A   Clear
6:15 PM 60.8 °F 46.4 °F 59% 30.39 in 10.0 mi Calm Calm - N/A   Clear
6:35 PM 57.2 °F 46.4 °F 67% 30.39 in 10.0 mi Calm Calm - N/A   Clear
6:55 PM 57.2 °F 46.4 °F 67% 30.39 in 10.0 mi SW 3.5 mph - N/A   Clear
7:15 PM 57.2 °F 46.4 °F 67% 30.38 in 10.0 mi SW 3.5 mph - N/A   Clear
7:35 PM 55.4 °F 44.6 °F 67% 30.38 in 10.0 mi SW 3.5 mph - N/A   Clear
7:55 PM 55.4 °F 44.6 °F 67% 30.37 in 10.0 mi SSW 5.8 mph - N/A   Clear
8:15 PM 55.4 °F 46.4 °F 72% 30.37 in 10.0 mi SSW 5.8 mph - N/A   Clear
8:35 PM 55.4 °F 46.4 °F 72% 30.38 in 10.0 mi Calm Calm - N/A   Clear
8:55 PM 53.6 °F 46.4 °F 77% 30.40 in 10.0 mi North 4.6 mph - N/A   Clear
9:15 PM 53.6 °F 46.4 °F 77% 30.41 in 10.0 mi Calm Calm - N/A   Clear
9:35 PM 51.8 °F 44.6 °F 76% 30.41 in 10.0 mi Calm Calm - N/A   Clear
9:55 PM 50.0 °F 44.6 °F 82% 30.41 in 10.0 mi Calm Calm - N/A   Clear
10:15 PM 51.8 °F 46.4 °F 82% 30.41 in 10.0 mi West 4.6 mph - N/A   Clear
10:35 PM 53.6 °F 46.4 °F 77% 30.41 in 10.0 mi WSW 3.5 mph - N/A   Clear
10:55 PM 53.6 °F 46.4 °F 77% 30.41 in 10.0 mi Calm Calm - N/A   Clear
11:15 PM 53.6 °F 44.6 °F 72% 30.42 in 10.0 mi Calm Calm - N/A   Clear
11:35 PM 51.8 °F 46.4 °F 82% 30.43 in 10.0 mi Calm Calm - N/A   Clear
11:55 PM 51.8 °F 46.4 °F 82% 30.43 in 10.0 mi Calm Calm - N/A   Clear